Presure
187 181 197 188 199 251 224 242 234 237 234 239 238 242 250 244 237 219 237 220 133 216 134 161 229 207 235 135 131 212 215 213 225 126 129 146 142 136 123 125 131 138 126 141
188 189 180 190 182 224 242 227 233 238 246 236 227 235 240 259 188 119 221 231 216 210 153 223 216 129 232 140 129 203 151 184 123 120 130 136 193 130 130 133 133 200 199 187
181 183 189 189 185 199 236 221 240 237 235 237 236 233 240 255 267 228 117 121 168 137 140 128 213 232 127 203 233 221 210 134 127 119 123 128 171 133 133 165 162 205 201 200
181 196 187 190 196 188 226 240 219 240 235 228 225 229 226 240 255 242 221 229 153 143 140 213 221 228 228 208 146 212 119 124 207 127 116 124 189 146 128 199 201 186 192 201
181 195 185 180 196 203 190 234 225 231 234 241 231 222 225 227 235 247 231 224 224 213 218 217 220 131 122 166 216 133 138 125 131 198 217 202 189 140 193 200 204 213 205 199
194 180 182 195 179 195 197 226 241 219 224 233 234 227 225 220 219 235 248 168 219 218 213 220 213 148 145 210 207 205 192 156 205 207 205 200 198 198 197 199 194 214 195 211
184 183 180 194 203 191 203 218 227 231 215 206 229 231 221 221 224 222 219 233 231 240 215 217 212 210 211 204 204 206 206 200 193 193 197 207 204 205 209 210 216 207 213 201
185 171 179 191 178 201 183 216 221 247 223 213 216 230 223 220 220 223 226 219 220 226 230 230 238 216 203 199 209 210 214 213 218 217 214 213 215 211 203 206 206 208 206 209
179 188 182 188 185 199 192 209 218 226 240 211 211 216 233 215 218 214 213 213 212 213 218 220 217 216 219 222 217 217 213 210 206 204 210 210 208 208 215 220 220 206 202 203
188 176 181 179 195 196 197 210 217 217 223 241 213 210 215 211 215 216 216 216 212 208 209 210 217 222 223 221 221 222 220 220 216 213 211 209 209 209 207 207 206 208 203 200
195 183 177 185 192 178 198 204 198 213 214 222 231 218 218 220 212 210 218 220 219 214 213 212 212 214 214 213 211 212 213 214 212 208 205 205 206 208 209 212 208 196 195 215
182 182 174 186 195 182 195 204 201 203 220 211 233 233 225 209 221 217 215 202 222 227 223 217 203 205 205 204 203 202 203 205 206 209 215 212 207 204 205 207 202 227 223 194
189 184 181 194 180 179 193 196 204 202 214 212 215 217 256 224 210 208 201 194 200 209 204 207 208 210 213 212 213 214 210 208 206 205 198 197 200 198 204 222 230 204 195 194
187 180 168 191 191 187 196 197 203 188 203 214 203 214 225 252 251 210 206 205 200 197 201 209 211 211 213 218 216 202 203 206 203 198 199 203 222 230 214 212 202 201 197 196
186 193 181 190 194 186 182 186 195 185 196 210 210 208 209 220 282 274 218 213 209 203 209 219 211 207 207 221 212 206 210 207 201 202 199 200 202 203 201 200 196 196 199 197
194 181 186 188 195 190 180 198 199 195 188 199 208 201 214 212 218 233 270 229 208 209 204 202 206 208 209 210 208 202 206 208 206 208 206 200 200 198 199 199 200 200 199 198
185 194 175 192 195 185 188 194 208 202 184 199 207 215 209 209 209 229 227 268 251 227 209 202 205 205 201 199 211 211 203 204 203 205 204 202 200 200 201 198 196 197 199 203
187 186 191 192 193 178 193 191 215 206 199 199 204 207 214 214 212 202 226 229 276 256 240 227 217 210 207 204 199 219 208 211 212 209 206 204 205 201 196 194 198 200 203 202
187 198 195 187 189 177 197 208 213 191 175 202 204 202 204 194 200 213 201 236 217 256 267 249 234 225 221 214 210 207 205 205 204 203 201 207 211 210 208 204 204 202 202 202
196 190 193 196 208 203 207 210 207 201 201 196 207 204 181 219 193 222 194 203 227 179 245 257 273 249 233 202 216 213 212 210 208 203 204 204 204 206 204 203 203 205 204 196
197 192 207 209 210 207 205 206 200 201 201 206 191 206 194 214 220 222 200 218 217 226 217 251 259 279 267 249 237 230 220 219 216 214 212 214 215 213 212 212 213 215 214 204
222 223 212 212 205 198 196 195 200 202 198 197 203 211 208 209 199 222 179 213 225 199 172 217 240 264 286 268 257 245 236 231 226 225 224 221 221 205 215 216 220 217 216 217
215 200 202 202 198 196 201 204 194 200 202 201 202 198 210 204 211 216 223 223 195 212 211 202 250 225 217 229 232 190 243 247 247 251 258 256 243 199 236 236 236 235 236 244
190 206 198 205 197 207 202 202 201 194 198 198 202 152 162 198 209 172 165 190 207 172 204 196 244 255 249 218 211 210 223 222 222 221 235 265 264 263 256 254 257 257 251 246
208 206 194 200 202 199 193 196 194 193 196 201 208 219 208 219 224 166 223 196 214 234 215 223 227 236 246 230 230 240 242 227 239 259 257 263 262 263 260 255 248 245 248 251
198 200 200 195 192 191 199 197 191 195 205 210 209 205 221 214 227 227 164 220 220 213 214 219 220 231 236 230 229 237 231 261 255 258 259 264 260 241 231 237 258 266 259 250
Wind_Speed
30 33 33 33 38 34 29 22 18 9 6 4 2 3 7 17 20 25 32 30 31 34 34 37 39 39 44 43 45 46 48 50 49 47 51 59 58 59 54 59 65 68 62 74
26 26 28 30 28 36 28 24 21 14 8 7 7 6 7 12 23 23 25 31 29 27 34 32 35 38 39 33 36 47 45 48 40 43 52 55 56 59 62 63 64 65 67 67
31 31 23 27 26 34 32 24 18 15 8 6 8 7 10 10 16 26 23 20 23 32 36 31 34 35 30 30 42 44 47 49 43 41 47 53 57 61 62 62 62 66 64 64
29 28 23 26 28 24 32 26 22 12 9 8 5 6 7 9 12 27 26 28 27 37 36 30 29 29 34 34 38 37 35 41 41 48 45 53 51 59 59 59 63 66 67 65
27 24 26 26 26 30 24 29 19 15 10 8 7 6 6 5 9 16 31 28 28 25 27 27 29 30 35 32 31 48 53 46 50 44 42 45 50 57 61 59 64 64 58 63
21 25 26 26 23 28 27 29 22 18 18 10 8 7 9 7 5 11 20 32 28 30 27 30 30 32 40 32 32 33 37 44 37 37 41 44 48 51 57 61 64 67 63 66
28 22 25 25 32 26 30 31 25 17 17 14 15 9 10 11 10 10 11 16 20 34 27 33 34 35 35 34 34 37 39 39 40 43 49 55 56 57 63 62 69 65 66 65
21 28 25 20 24 29 23 30 24 17 18 17 19 15 11 14 13 12 14 16 16 18 21 26 30 42 34 35 44 45 49 48 48 50 53 57 56 57 58 62 65 65 65 66
27 20 23 22 24 27 28 31 25 21 18 16 17 21 17 17 15 14 14 13 13 15 20 26 30 32 33 35 37 37 40 42 45 47 50 53 56 59 62 65 65 62 64 69
28 29 25 26 25 28 28 29 27 25 21 21 18 18 21 18 21 20 18 18 17 19 20 21 25 30 34 36 37 38 40 42 44 46 48 51 53 55 58 61 61 60 64 68
32 26 31 23 20 28 32 31 29 27 26 21 22 22 22 23 24 26 25 25 26 23 25 26 25 28 29 30 33 35 37 40 43 46 49 52 53 56 58 61 59 59 65 66
30 30 35 23 24 26 31 32 32 29 25 26 23 29 21 19 25 28 29 24 28 30 29 26 24 25 27 29 33 37 40 43 46 48 51 51 54 57 60 59 60 64 61 69
38 39 31 31 27 30 29 32 32 29 28 28 26 26 28 22 27 26 26 27 32 33 34 33 33 33 33 34 38 41 43 44 49 51 50 53 56 58 61 66 64 64 68 71
33 36 37 30 27 26 30 31 31 32 30 28 28 27 23 28 28 30 32 30 31 34 38 40 40 39 36 35 35 42 44 47 48 51 56 56 58 60 61 62 65 66 70 73
34 40 38 32 32 27 33 36 28 35 32 31 28 28 25 25 25 32 31 33 34 36 39 40 41 42 41 38 36 44 45 50 51 54 56 56 57 58 62 65 68 72 74 75
43 41 40 36 37 27 37 45 34 33 35 33 32 32 26 29 27 23 30 33 36 37 40 39 41 43 45 45 42 48 50 51 52 54 56 58 60 62 65 68 71 75 77 80
44 45 45 44 37 30 45 41 42 35 38 32 31 29 30 31 31 28 27 32 35 39 40 43 45 46 45 45 48 51 55 54 56 57 58 60 62 65 68 71 73 77 79 82
49 42 43 42 39 39 54 45 43 35 36 33 32 32 29 30 31 36 32 32 36 40 43 45 48 51 50 49 48 51 55 56 58 59 61 63 66 68 70 73 75 78 80 83
45 53 47 37 44 46 58 55 41 39 42 32 35 37 35 37 37 34 43 35 39 36 40 49 52 54 55 56 57 57 58 59 60 62 64 66 69 72 74 76 78 81 84 85
55 45 46 47 51 47 54 47 43 38 47 30 37 37 40 38 41 36 44 45 38 43 42 43 43 54 58 53 60 62 63 65 66 67 69 72 74 76 78 80 82 85 87 84
57 46 60 54 43 44 50 47 44 40 47 39 40 40 42 41 42 40 44 39 43 43 46 46 45 45 50 58 62 65 66 68 71 73 76 78 79 81 84 87 89 91 92 89
62 54 47 45 42 42 56 50 42 45 43 43 43 46 46 45 42 48 41 43 43 44 43 50 48 42 46 47 53 60 65 69 73 77 79 82 84 81 87 90 94 95 96 98
56 48 50 50 48 50 49 50 47 48 47 47 45 46 51 49 49 50 53 53 43 48 53 59 45 48 51 45 47 58 55 58 62 66 71 77 87 75 93 96 98 101 102 102
55 55 52 50 51 48 47 50 50 50 52 48 51 33 39 49 52 47 38 49 49 44 56 51 53 55 49 59 63 67 66 67 71 75 75 71 75 80 86 88 87 88 90 93
59 54 53 48 50 54 53 50 50 53 53 53 57 60 55 57 57 42 57 50 55 63 55 58 56 57 61 60 67 69 69 74 75 72 71 73 74 75 77 78 82 86 89 92
55 57 58 55 52 52 53 53 53 56 59 60 59 56 60 59 60 58 42 57 57 59 61 63 61 66 67 67 69 73 75 77 79 72 73 74 73 74 78 81 85 87 89 91
Wind_Direction
298 294 330 319 337 1 358 336 335 323 332 323 304 278 235 214 205 198 200 216 234 216 237 240 217 223 207 239 250 221 224 232 230 268 269 266 269 269 284 284 283 281 287 283
301 302 297 322 311 352 355 353 337 332 326 309 301 276 253 236 221 230 223 208 221 218 235 221 227 258 213 257 263 225 251 240 276 281 272 263 260 277 281 281 284 270 273 276
283 288 309 316 315 338 358 352 339 326 326 313 299 288 265 233 208 222 236 251 249 250 245 261 229 225 260 232 224 227 231 260 272 284 285 282 265 277 281 274 277 266 268 271
275 313 299 312 327 319 353 349 350 328 318 304 306 308 289 269 234 215 231 223 247 249 252 241 236 229 232 240 268 232 277 282 251 280 283 284 263 278 283 263 262 269 269 276
270 310 296 292 324 335 323 352 341 331 318 298 285 289 269 273 268 219 224 237 232 239 240 235 240 263 274 262 240 272 267 279 278 251 253 252 255 278 257 263 271 274 276 279
289 273 288 318 292 327 327 347 336 335 329 302 284 267 274 254 233 252 228 244 238 237 245 238 246 261 260 251 254 251 256 269 259 266 266 264 265 267 269 272 272 281 281 287
270 272 278 318 330 312 329 339 338 317 327 322 289 275 262 259 243 230 231 238 243 240 243 248 246 252 255 258 260 261 263 264 262 264 268 272 273 274 275 277 279 282 282 283
253 266 268 306 294 320 298 333 336 312 308 321 318 297 261 261 260 248 226 224 233 239 244 246 246 247 254 262 265 265 267 264 268 270 269 271 272 273 275 277 279 283 286 285
242 268 267 298 301 317 303 323 330 332 295 304 308 314 292 278 277 270 265 259 252 253 253 252 250 250 253 250 252 256 261 264 266 270 270 271 273 276 275 276 278 284 286 286
265 256 257 268 312 312 311 321 327 323 323 294 295 297 299 297 287 284 278 271 261 256 260 261 265 263 261 263 266 265 266 267 267 268 268 269 271 274 277 278 281 284 286 289
264 247 250 276 298 275 319 310 304 317 316 319 287 289 289 294 293 291 283 278 271 261 259 262 264 269 273 277 278 277 276 274 272 272 274 277 280 280 282 285 288 292 289 286
237 244 252 263 290 273 309 309 301 310 313 310 299 286 294 298 281 281 288 292 284 280 281 280 269 269 272 276 278 277 276 277 278 278 278 282 284 286 288 293 293 286 283 292
251 257 254 275 260 262 297 301 300 302 314 304 308 310 294 277 280 282 281 282 291 288 286 282 281 279 276 277 277 278 278 279 281 283 286 288 290 293 293 287 286 286 289 292
243 245 251 268 273 267 296 295 297 288 300 299 296 299 307 293 276 271 276 276 280 285 287 282 282 281 278 277 275 275 280 281 279 282 284 285 279 277 287 287 289 290 290 291
241 255 244 260 273 259 266 276 281 278 289 301 293 295 299 300 295 276 273 275 276 275 279 280 280 281 280 281 276 275 275 273 278 279 285 287 286 287 287 289 291 291 292 293
248 237 254 258 269 263 259 290 280 273 278 287 290 291 295 294 298 298 287 271 272 275 278 280 282 281 283 285 284 284 282 279 281 282 283 285 286 289 290 289 290 291 291 293
235 249 242 262 266 261 277 277 284 277 273 279 290 299 288 290 294 310 301 289 275 273 274 277 279 279 280 283 280 277 280 282 283 281 283 285 286 286 286 287 288 289 291 292
238 239 252 258 268 253 272 273 279 276 274 277 283 288 301 298 296 291 306 300 291 282 275 273 274 277 279 279 280 276 279 280 280 281 282 283 283 284 286 288 289 290 292 293
235 250 253 243 259 252 275 272 270 260 268 271 280 277 281 290 289 295 288 307 294 303 293 277 274 276 277 280 281 282 281 281 282 284 285 285 285 285 286 288 290 291 291 293
243 237 249 260 266 263 262 263 264 268 274 266 279 277 283 303 278 300 288 289 306 290 308 295 291 273 271 285 278 280 281 283 283 285 285 286 286 286 287 288 288 289 290 297
242 241 255 255 252 252 257 259 261 266 271 278 276 280 271 297 300 300 281 306 303 303 297 307 301 296 282 275 275 276 280 281 282 283 285 285 285 285 286 286 287 288 291 295
242 244 245 246 244 247 252 258 264 268 268 274 286 294 287 290 290 301 285 293 306 292 295 295 305 315 305 291 284 282 281 281 281 282 283 284 285 290 288 290 290 291 292 293
242 234 237 239 240 246 255 259 264 270 274 276 280 283 291 286 291 298 300 296 295 287 289 291 307 291 291 291 293 299 292 290 291 293 292 288 284 293 285 286 287 288 290 292
226 239 236 246 246 253 255 260 262 264 270 274 280 268 277 286 291 288 283 286 300 294 286 298 308 313 295 289 289 292 289 289 289 289 292 294 291 290 288 289 291 294 294 294
238 241 240 245 252 250 249 256 263 263 269 276 283 288 287 291 294 287 295 291 294 301 293 298 303 307 304 295 296 293 293 292 295 296 296 297 296 295 295 294 294 294 296 297
238 240 244 244 248 251 256 256 261 268 275 281 282 284 289 290 291 292 290 291 293 292 293 299 301 305 302 299 298 297 295 302 299 298 299 297 296 295 294 297 299 300 299 298